Location: Aultman
(40.9284°N, 81.4173°W)
Time: 14:05:18
(UTC+00:00)

EXPRESS MD2 - Pass Details

Date: 24 January 2021
Orbit: 260 x 3983 km, 49.9° (Epoch: 01 March)

Event Time Altitude Azimuth Distance (km) Brightness Sun altitude
Rises 23:29:30 0° 302° (WNW) 5,226 9.0 -10.8°
Reaches altitude 10° 23:33:54 10° 301° (WNW) 3,578 8.1 -11.6°
Maximum altitude 23:41:52 75° 218° (SW) 809 4.2 -13.0°
Drops below altitude 10° 23:45:41 10° 133° (SE) 1,761 5.6 -13.7°
Enters shadow 23:46:01 - 133° (SE) 1,892 5.7 -13.8°
